Weather Roundup
Issued by NWS Chicago, IL

Home | Current Version | Previous Version | Text Only | Print | Product List | Glossary On
Versions: 1 2 3 4 5 6 7 8 9 10 11 12 13 14 15 16 17 18 19 20 21 22 23 24 25 26 27 28 29 30 31 32 33 34 35 36 37 38 39 40 41 42 43 44 45 46 47 48 49 50
000
NZUS59 KLOT 211712
HRRLOT

CHICAGO AREA WEATHER ROUNDUP
NATIONAL WEATHER SERVICE CHICAGO/ROMEOVILLE IL
1100 AM CST TUE FEB 21 2017

NOTE: "FAIR" INDICATES FEW OR NO CLOUDS BELOW 12,000 FEET WITH NO
SIGNIFICANT WEATHER AND/OR OBSTRUCTIONS TO VISIBILITY.

* THESE STATIONS ARE NOT UNDER NWS QUALITY CONTROL. THEY ALSO MAY NOT
  REPORT WEATHER SUCH AS PRECIPITATION OR FOG.

ILZ005-006-012>014-019>023-211800-
NORTHEAST ILLINOIS

CITY           SKY/WX    TMP DP  RH WIND       PRES   REMARKS
OHARE          CLOUDY    60  55  83 SW7       29.94S
MIDWAY         CLOUDY    60  55  83 SW7       29.95S
AURORA         CLOUDY    59  56  89 SW3       29.96R
LANSING*       CLOUDY    59  57  93 SW7       29.96S
JOLIET*        CLOUDY    62  58  87 SW3       29.96F
WAUKEGAN       CLOUDY    58  51  78 VRB3      29.93S
DUPAGE AIRPORT CLOUDY    58  54  86 SW7       29.95S
WHEELING       CLOUDY    58  54  86 SW6       29.95S
KANKAKEE*      CLOUDY    56  55  96 CALM      29.98R
MORRIS*        CLOUDY    60  56  88 CALM      29.95F
LEWIS AIRPORT* CLOUDY    59  59  97 W8        29.96S
NORTHERLY ISL    N/A     59  53  80 S5          N/A
$$

WIZ051-052-058>065-066-070>072-211800-
SOUTHEAST WISCONSIN

CITY           SKY/WX    TMP DP  RH WIND       PRES   REMARKS
MILWAUKEE      MOSUNNY   58  46  64 W3        29.93F
KENOSHA*       PTSUNNY   56  49  77 W6        29.93S
RACINE*        MOSUNNY   57  48  72 SW7       29.95R
WAUKESHA       MOSUNNY   52  43  71 W10       29.94F
WEST BEND      SUNNY     52  43  71 W7        29.92F
$$

INZ001>003-010>013-019-020-211800-
NORTHWEST INDIANA

CITY           SKY/WX    TMP DP  RH WIND       PRES   REMARKS
GARY*          PTSUNNY   61  55  82 S5        29.96F
MICHIGAN CITY* NOT AVBL
RENSSELAER*    NOT AVBL
VALPARAISO     LGT RAIN  56  55  97 S3        29.97S FOG
$$

LMZ740>746-211800-
SOUTHERN LAKE MICHIGAN

STATION/POSITION TIME  SKY/WX   TEMP WIND        PRES    VSBY
                                AIR  DIR/SP/G
                 (UTC)          (F)  (DEG/KT/KT) (MB)    (MI)
HARRISON CRIB    1640            59  230/  3/  3   N/A
BURNHAM HARBOR   1700            58  180/  5/  9   N/A
CALUMET HARBOR   1648            60  230/  4/  8 1013.8F
BURNS HARBOR     1640            56  200/  8/ 10 1014.9S
MICHIGAN CITY    1640            57  150/  8/  9   N/A
$$

ABBREVIATIONS USED IN REMARKS
   TC - TEMPERATURE IN CELSIUS
  WCI - WIND CHILL INDEX
   HX - HEAT INDEX
  VSB - VISIBILITY
$$




USA.gov is the U.S. government's official web portal to all federal, state and local government web resources and services.